KC0VVH Weather Reports


time (UTC)temp
C
wind
direction
speed
KPH
gust
KPH
rain 1hr
cm
rain 24hr
cm
rain mn
cm
humidity
%
barometer
mb
20260508111803 9 0 0.0 0.0 0.00 0.00 0.00 57 1017.9
20260508110915 9 0 0.0 0.0 0.00 0.00 0.00 54 1017.9
20260508110015 9 0 0.0 0.0 0.00 0.00 0.00 48 1017.9
20260508105424 10 0 0.0 0.0 0.00 0.00 0.00 48 1017.9
20260508104503 10 0 0.0 0.0 0.00 0.00 0.00 47 1017.9
20260508103615 10 0 0.0 0.0 0.00 0.00 0.00 46 1017.9
20260508102703 11 0 0.0 0.0 0.00 0.00 0.00 45 1017.9
20260508101815 11 0 0.0 0.0 0.00 0.00 0.00 44 1017.9
20260508100903 11 0 0.0 0.0 0.00 0.00 0.00 42 1017.9
20260508100015 11 284 0.0 1.6 0.00 0.00 0.00 44 1017.9
20260508095415 11 0 0.0 0.0 0.00 0.00 0.00 44 1017.9
20260508094515 11 0 0.0 0.0 0.00 0.00 0.00 42 1017.9
20260508093615 11 0 0.0 0.0 0.00 0.00 0.00 42 1017.9
20260508092736 11 0 0.0 0.0 0.00 0.00 0.00 43 1017.9
20260508091815 11 0 0.0 0.0 0.00 0.00 0.00 43 1017.9
20260508090924 11 0 0.0 0.0 0.00 0.00 0.00 42 1017.9
20260508090015 12 0 0.0 0.0 0.00 0.00 0.00 41 1017.9
20260508085415 12 0 0.0 0.0 0.00 0.00 0.00 40 1017.9
20260508084515 12 0 0.0 0.0 0.00 0.00 0.00 39 1017.9
20260508083615 12 0 0.0 0.0 0.00 0.00 0.00 37 1017.9
20260508082715 13 0 0.0 0.0 0.00 0.00 0.00 34 1017.9
20260508081803 13 0 0.0 0.0 0.00 0.00 0.00 33 1017.9
20260508080915 13 286 0.0 4.8 0.00 0.00 0.00 33 1017.9
20260508080036 13 286 0.0 4.8 0.00 0.00 0.00 32 1017.9
20260508075415 13 0 0.0 0.0 0.00 0.00 0.00 33 1017.9
20260508074515 14 0 0.0 0.0 0.00 0.00 0.00 32 1017.9
20260508073615 14 294 1.6 6.4 0.00 0.00 0.00 32 1017.9
20260508072703 14 0 0.0 0.0 0.00 0.00 0.00 33 1017.9
20260508071836 15 0 0.0 0.0 0.00 0.00 0.00 32 1017.9
20260508070915 15 0 0.0 0.0 0.00 0.00 0.00 30 1017.9
20260508070003 16 300 0.0 6.4 0.00 0.00 0.00 30 1017.9
20260508065436 16 301 0.0 6.4 0.00 0.00 0.00 28 1017.9
20260508064503 15 305 0.0 3.2 0.00 0.00 0.00 29 1017.9
20260508063636 16 0 0.0 0.0 0.00 0.00 0.00 30 1017.9
20260508062715 16 330 0.0 6.4 0.00 0.00 0.00 30 1017.9
20260508061815 17 348 1.6 11.3 0.00 0.00 0.00 30 1017.9
20260508060924 17 288 1.6 11.3 0.00 0.00 0.00 27 1017.9
20260508060003 18 233 1.6 8.0 0.00 0.00 0.00 25 1017.9
20260508055415 18 240 4.8 16.1 0.00 0.00 0.00 24 1017.9
20260508054503 18 249 6.4 14.5 0.00 0.00 0.00 24 1017.9
20260508053615 18 245 4.8 12.9 0.00 0.00 0.00 24 1017.9
20260508052715 18 238 1.6 8.0 0.00 0.00 0.00 24 1017.9
20260508051803 18 239 1.6 16.1 0.00 0.00 0.00 24 1017.9
20260508050915 18 237 3.2 14.5 0.00 0.00 0.00 24 1017.9
20260508050015 18 234 3.2 14.5 0.00 0.00 0.00 24 1017.9
20260508045415 18 222 1.6 11.3 0.00 0.00 0.00 25 1017.9
20260508044515 18 213 3.2 9.7 0.00 0.00 0.00 25 1017.9
20260508043615 18 213 1.6 6.4 0.00 0.00 0.00 25 1017.9
20260508042736 18 213 1.6 8.0 0.00 0.00 0.00 25 1017.9
20260508041824 18 0 0.0 0.0 0.00 0.00 0.00 26 1017.9
20260508040915 18 212 0.0 3.2 0.00 0.00 0.00 25 1017.9
20260508040015 18 212 0.0 3.2 0.00 0.00 0.00 25 1017.9
20260508035403 18 0 0.0 0.0 0.00 0.00 0.00 25 1017.9
20260508034524 18 213 0.0 6.4 0.00 0.00 0.00 25 1017.9
20260508033636 18 0 0.0 0.0 0.00 0.00 0.00 26 1017.9
20260508032702 18 0 0.0 0.0 0.00 0.00 0.00 26 1017.9
20260508031803 18 0 0.0 0.0 0.00 0.00 0.00 27 1017.9
20260508030915 18 0 0.0 0.0 0.00 0.00 0.00 27 1017.9
20260508030024 18 0 0.0 0.0 0.00 0.00 0.00 27 1017.9
20260508025415 18 0 0.0 0.0 0.00 0.00 0.00 27 1017.9
20260508024515 19 0 0.0 0.0 0.00 0.00 0.00 25 1017.9
20260508023603 20 0 0.0 0.0 0.00 0.00 0.00 25 1017.9
20260508022703 20 0 0.0 0.0 0.00 0.00 0.00 24 1017.9
20260508021815 20 212 0.0 3.2 0.00 0.00 0.00 23 1017.9
20260508020915 20 213 0.0 4.8 0.00 0.00 0.00 23 1017.9
20260508020015 20 0 0.0 0.0 0.00 0.00 0.00 23 1017.9
20260508015415 20 0 0.0 0.0 0.00 0.00 0.00 23 1017.9
20260508014515 20 0 0.0 1.6 0.00 0.00 0.00 23 1017.9
20260508013615 20 160 0.0 8.0 0.00 0.00 0.00 23 1017.9
20260508012715 20 44 1.6 6.4 0.00 0.00 0.00 23 1017.9
20260508011803 21 44 1.6 8.0 0.00 0.00 0.00 22 1017.9
20260508010936 21 42 0.0 6.4 0.00 0.00 0.00 22 1017.9
20260508010003 21 41 1.6 8.0 0.00 0.00 0.00 21 1017.9
20260508005436 21 41 1.6 8.0 0.00 0.00 0.00 21 1017.9
20260508004515 22 40 0.0 6.4 0.00 0.00 0.00 20 1017.9
20260508003615 22 40 1.6 6.4 0.00 0.00 0.00 20 1017.9
20260508002736 23 40 1.6 6.4 0.00 0.00 0.00 20 1017.9
20260508001803 23 40 1.6 6.4 0.00 0.00 0.00 19 1017.9
20260508000903 23 40 0.0 6.4 0.00 0.00 0.00 19 1017.9
20260508000003 23 40 1.6 8.0 0.00 0.00 0.00 18 1017.9
20260507235436 23 40 1.6 8.0 0.00 0.00 0.00 19 1017.9
20260507234515 22 38 3.2 8.0 0.00 0.00 0.00 19 1017.9
20260507233603 22 38 1.6 4.8 0.00 0.00 0.00 19 1017.9
20260507232715 23 38 1.6 6.4 0.00 0.00 0.00 18 1017.9
20260507231803 23 38 0.0 8.0 0.00 0.00 0.00 19 1017.9
20260507230915 23 34 3.2 14.5 0.00 0.00 0.00 19 1017.9
20260507230015 23 38 4.8 11.3 0.00 0.00 0.00 18 1017.9
20260507225415 23 40 3.2 11.3 0.00 0.00 0.00 18 1017.9
20260507224524 23 36 1.6 9.7 0.00 0.00 0.00 18 1017.9
20260507223603 23 28 1.6 8.0 0.00 0.00 0.00 18 1017.9
20260507222736 23 33 3.2 12.9 0.00 0.00 0.00 18 1017.9
20260507221815 22 46 0.0 8.0 0.00 0.00 0.00 19 1017.9
20260507220915 23 37 3.2 8.0 0.00 0.00 0.00 17 1017.9
20260507220015 23 45 4.8 14.5 0.00 0.00 0.00 18 1017.9
20260507215424 22 57 4.8 11.3 0.00 0.00 0.00 19 1017.9
20260507214503 22 60 3.2 11.3 0.00 0.00 0.00 19 1017.9
20260507213615 22 31 1.6 9.7 0.00 0.00 0.00 19 1017.9
20260507212715 22 32 4.8 12.9 0.00 0.00 0.00 19 1017.9
20260507211815 22 29 1.6 8.0 0.00 0.00 0.00 20 1017.9
20260507210903 22 9 1.6 12.9 0.00 0.00 0.00 19 1017.9
20260507210015 21 8 3.2 14.5 0.00 0.00 0.00 19 1017.9
20260507205403 21 11 3.2 14.5 0.00 0.00 0.00 19 1017.9
20260507204515 21 42 4.8 12.9 0.00 0.00 0.00 21 1017.9
20260507203603 20 43 3.2 11.3 0.00 0.00 0.00 21 1017.9
20260507202715 20 35 3.2 12.9 0.00 0.00 0.00 21 1017.9
20260507201815 20 82 1.6 12.9 0.00 0.00 0.00 22 1017.9
20260507200915 19 37 1.6 6.4 0.00 0.00 0.00 22 1017.9
20260507200015 20 46 4.8 17.7 0.00 0.00 0.00 21 1017.9
20260507195403 20 42 6.4 17.7 0.00 0.00 0.00 21 1017.9
20260507194503 20 21 1.6 9.7 0.00 0.00 0.00 20 1017.9
20260507193636 20 40 4.8 9.7 0.00 0.00 0.00 21 1017.9
20260507192703 20 29 3.2 11.3 0.00 0.00 0.00 21 1017.9
20260507191815 18 15 3.2 11.3 0.00 0.00 0.00 22 1017.9
20260507190903 18 46 3.2 11.3 0.00 0.00 0.00 22 1017.9
20260507190036 18 50 3.2 12.9 0.00 0.00 0.00 21 1017.9
20260507185403 18 37 3.2 12.9 0.00 0.00 0.00 21 1017.9
20260507184515 18 19 1.6 8.0 0.00 0.00 0.00 22 1017.9
20260507183615 17 13 1.6 12.9 0.00 0.00 0.00 23 1017.9
20260507182703 17 41 1.6 8.0 0.00 0.00 0.00 22 1017.9
20260507181803 17 10 3.2 12.9 0.00 0.00 0.00 22 1017.9
20260507180903 17 12 3.2 12.9 0.00 0.00 0.00 22 1017.9
20260507180015 17 28 3.2 14.5 0.00 0.00 0.00 23 1017.9
20260507175424 17 31 1.6 12.9 0.00 0.00 0.00 22 1017.9
20260507174515 17 44 3.2 14.5 0.00 0.00 0.00 22 1017.9
20260507173615 16 27 1.6 12.9 0.00 0.00 0.00 22 1017.9
20260507172715 16 27 1.6 12.9 0.00 0.00 0.00 23 1017.9
20260507171815 16 328 0.0 8.0 0.00 0.00 0.00 23 1017.9
20260507170915 15 348 1.6 8.0 0.00 0.00 0.00 23 1017.9
20260507170015 14 175 0.0 6.4 0.00 0.00 0.00 26 1017.9
20260507165415 14 104 1.6 8.0 0.00 0.00 0.00 27 1017.9
20260507164503 14 61 0.0 6.4 0.00 0.00 0.00 26 1017.9
20260507163636 14 61 0.0 6.4 0.00 0.00 0.00 29 1017.9
20260507162703 14 56 3.2 12.9 0.00 0.00 0.00 27 1017.9
20260507161803 13 62 1.6 9.7 0.00 0.00 0.00 29 1017.9
20260507160915 13 68 1.6 9.7 0.00 0.00 0.00 30 1017.9
20260507160036 13 37 0.0 11.3 0.00 0.00 0.00 30 1017.9
20260507155415 12 55 1.6 12.9 0.00 0.00 0.00 31 1017.9
20260507154515 12 59 3.2 16.1 0.00 0.00 0.00 32 1017.9
20260507153615 11 151 4.8 19.3 0.00 0.00 0.00 35 1017.9
20260507152736 10 201 8.0 19.3 0.00 0.00 0.00 36 1017.9
20260507151803 10 210 6.4 19.3 0.00 0.00 0.00 38 1017.9
20260507150915 10 207 4.8 17.7 0.00 0.00 0.00 38 1017.9
20260507150015 10 52 1.6 16.1 0.00 0.00 0.00 39 1017.9
20260507145415 10 76 0.0 8.0 0.00 0.00 0.00 39 1017.9
20260507144503 9 149 1.6 12.9 0.00 0.00 0.00 40 1017.9
20260507143615 9 49 0.0 9.7 0.00 0.00 0.00 40 1017.9
20260507142715 8 43 0.0 4.8 0.00 0.00 0.00 42 1017.9
20260507141815 8 43 0.0 4.8 0.00 0.00 0.00 41 1017.9
20260507140936 8 44 0.0 4.8 0.00 0.00 0.00 43 1017.9
20260507140003 7 50 0.0 8.0 0.00 0.00 0.00 44 1017.9
20260507135415 7 58 0.0 8.0 0.00 0.00 0.00 45 1017.9
20260507134524 7 55 1.6 11.3 0.00 0.00 0.00 45 1017.9
20260507133615 7 57 1.6 8.0 0.00 0.00 0.00 45 1017.9
20260507132715 7 63 1.6 6.4 0.00 0.00 0.00 45 1017.9
20260507131815 6 225 0.0 8.0 0.00 0.00 0.00 45 1017.9
20260507130903 6 229 1.6 14.5 0.00 0.00 0.00 44 1017.9
20260507130015 6 212 3.2 11.3 0.00 0.00 0.00 44 1017.9
20260507125403 6 203 3.2 11.3 0.00 0.03 0.00 45 1017.9
20260507124515 5 189 4.8 20.9 0.00 0.03 0.00 47 1017.9
20260507123603 4 194 6.4 12.9 0.00 0.03 0.00 50 1017.9
20260507122715 3 218 4.8 12.9 0.00 0.05 0.00 53 1017.9
20260507121803 3 253 1.6 8.0 0.00 0.10 0.00 55 1017.9
20260507120915 3 255 0.0 8.0 0.00 0.13 0.00 54 1017.9
20260507120015 3 0 0.0 0.0 0.00 0.13 0.00 53 1017.9
20260507115424 3 0 0.0 0.0 0.00 0.15 0.00 52 1017.9
20260507114503 3 0 0.0 0.0 0.00 0.15 0.00 53 1017.9
20260507113615 3 0 0.0 0.0 0.00 0.15 0.00 53 1017.9
20260507112715 3 0 0.0 0.0 0.00 0.15 0.00 52 1017.9